This demonstration page uses our WeatherBlox Daily Observations layout. Learn more.

Left ArrowRight Arrow

Hourly Observations for February 9, 2016

Temp ( °F °C ) Dew Point ( °F °C ) Humidity (%) Winds ( mph kmh ) Pressure ( in mb ) Visibility ( mi km ) Precip ( " mm )
12:14 am 00:14 Cloudy 23 -5 18 -8 80 80 W 13 20 29.80 1009 10 16 N/A
12:34 am 00:34 Cloudy 23 -5 18 -8 80 80 W 15 24 29.80 1009 7 11 N/A
12:54 am 00:54 Cloudy 23 -5 18 -8 80 80 W 14 22 29.80 1009 7 11 N/A
1:14 am 01:14 Cloudy 21 -6 19 -7 93 93 W 17 28 29.77 1008 3 4 N/A
1:35 am 01:35 Cloudy 21 -6 19 -7 93 93 W 14 22 29.77 1008 3 4 N/A
1:54 am 01:54 Cloudy 21 -6 18 -8 86 86 W 13 20 29.77 1008 5 8 N/A
2:14 am 02:14 Cloudy 21 -6 19 -7 93 93 W 13 20 29.77 1008 3 5 N/A
2:35 am 02:35 Cloudy 21 -6 19 -7 93 93 WNW 13 20 29.77 1008 3 5 N/A
2:54 am 02:54 Cloudy 21 -6 19 -7 93 93 WNW 14 22 29.77 1008 5 8 N/A
3:15 am 03:15 Cloudy 21 -6 19 -7 93 93 W 13 20 29.77 1008 4 6 N/A
3:34 am 03:34 Cloudy 21 -6 19 -7 93 93 W 14 22 29.77 1008 4 6 N/A
3:54 am 03:54 Cloudy 21 -6 19 -7 93 93 W 13 20 29.77 1008 3 5 N/A
4:14 am 04:14 Cloudy 21 -6 18 -8 86 86 W 15 24 29.77 1008 3 5 N/A
4:34 am 04:34 Cloudy 21 -6 18 -8 86 86 W 18 30 29.77 1008 4 6 N/A
4:55 am 04:55 Cloudy 21 -6 18 -8 86 86 WNW 13 20 29.77 1008 7 11 N/A
5:14 am 05:14 Cloudy 21 -6 18 -8 86 86 WNW 14 22 29.77 1008 7 11 N/A
5:34 am 05:34 Cloudy 21 -6 18 -8 86 86 W 15 24 29.77 1008 10 16 N/A
5:55 am 05:55 Cloudy 21 -6 18 -8 86 86 WNW 16 26 29.77 1008 10 16 N/A
6:14 am 06:14 Cloudy 21 -6 18 -8 86 86 WNW 14 22 29.77 1008 5 8 N/A
6:34 am 06:34 Cloudy 21 -6 18 -8 86 86 W 15 24 29.80 1009 3 5 N/A
6:55 am 06:55 Cloudy 21 -6 18 -8 86 86 W 16 26 29.80 1009 4 6 N/A
7:14 am 07:14 Cloudy 21 -6 16 -9 80 80 W 15 24 29.80 1009 5 8 N/A
7:34 am 07:34 Cloudy 19 -7 16 -9 86 86 W 13 20 29.80 1009 5 8 N/A
7:55 am 07:55 Cloudy 19 -7 16 -9 86 86 W 10 17 29.80 1009 5 8 N/A
8:14 am 08:14 Cloudy 19 -7 16 -9 86 86 WNW 16 26 29.83 1010 5 8 N/A
8:34 am 08:34 Cloudy 19 -7 16 -9 86 86 W 13 20 29.83 1010 3 5 N/A
8:55 am 08:55 Cloudy 21 -6 18 -8 86 86 W 12 19 29.83 1010 2 3 N/A
9:14 am 09:14 Cloudy 19 -7 16 -9 86 86 W 17 28 29.83 1010 2 3 N/A
9:34 am 09:34 Cloudy 21 -6 16 -9 80 80 W 14 22 29.83 1010 2 3 N/A
9:55 am 09:55 Cloudy 21 -6 16 -9 80 80 W 16 26 29.83 1010 3 4 N/A
10:14 am 10:14 Cloudy 21 -6 16 -9 80 80 W 15 24 29.83 1010 4 6 N/A
10:34 am 10:34 Cloudy 21 -6 16 -9 80 80 W 16 26 29.83 1010 3 5 N/A
10:55 am 10:55 Cloudy 21 -6 16 -9 80 80 W 14 22 29.83 1010 5 8 N/A
11:14 am 11:14 Cloudy 21 -6 16 -9 80 80 W 17 28 29.83 1010 3 5 N/A
11:34 am 11:34 Cloudy 21 -6 16 -9 80 80 WNW 18 30 29.83 1010 7 11 N/A
11:55 am 11:55 Cloudy 23 -5 16 -9 74 74 W 16 26 29.83 1010 10 16 N/A
12:14 pm 12:14 Cloudy 23 -5 18 -8 80 80 W 16 26 29.83 1010 10 16 N/A
12:34 pm 12:34 Cloudy 23 -5 18 -8 80 80 WNW 14 22 29.83 1010 7 11 N/A
12:55 pm 12:55 Cloudy 23 -5 18 -8 80 80 W 15 24 29.83 1010 10 16 N/A
1:14 pm 13:14 Cloudy 23 -5 18 -8 80 80 WNW 16 26 29.83 1010 7 11 N/A
1:34 pm 13:34 Cloudy 23 -5 18 -8 80 80 W 17 28 29.83 1010 7 11 N/A
1:55 pm 13:55 Cloudy 23 -5 18 -8 80 80 WNW 18 30 29.83 1010 10 16 N/A
2:14 pm 14:14 Cloudy 23 -5 18 -8 80 80 W 15 24 29.83 1010 7 11 N/A
2:34 pm 14:34 Cloudy 23 -5 18 -8 80 80 W 16 26 29.83 1010 5 8 N/A
2:55 pm 14:55 Cloudy 23 -5 18 -8 80 80 W 22 35 29.85 1011 5 8 N/A
3:14 pm 15:14 Cloudy 23 -5 16 -9 74 74 W 15 24 29.85 1011 5 8 N/A
3:34 pm 15:34 Cloudy 23 -5 16 -9 74 74 W 18 30 29.85 1011 5 8 N/A
3:55 pm 15:55 Cloudy 23 -5 16 -9 74 74 WNW 14 22 29.85 1011 7 11 N/A
4:14 pm 16:14 Cloudy 21 -6 16 -9 80 80 W 15 24 29.88 1012 7 11 N/A
4:34 pm 16:34 Cloudy 21 -6 16 -9 80 80 WNW 17 28 29.88 1012 5 8 N/A
4:54 pm 16:54 Cloudy 21 -6 16 -9 80 80 WNW 16 26 29.88 1012 4 6 N/A
5:14 pm 17:14 Cloudy 21 -6 14 -10 74 74 WNW 16 26 29.91 1013 7 11 N/A
5:35 pm 17:35 Cloudy 19 -7 14 -10 79 79 W 15 24 29.97 1015 4 6 N/A
5:54 pm 17:54 Cloudy 19 -7 14 -10 79 79 WNW 16 26 29.97 1015 5 8 N/A
6:14 pm 18:14 Cloudy 19 -7 14 -10 79 79 WNW 18 30 29.97 1015 7 11 N/A
6:35 pm 18:35 Cloudy 19 -7 12 -11 73 73 W 15 24 30.00 1016 10 16 N/A
6:54 pm 18:54 Cloudy 18 -8 12 -11 79 79 WNW 16 26 30.00 1016 10 16 N/A
7:14 pm 19:14 Mostly Cloudy 16 -9 10 -12 79 79 W 15 24 30.00 1016 10 16 N/A
7:34 pm 19:34 Clear 16 -9 10 -12 79 79 WNW 14 22 30.00 1016 10 16 N/A
7:54 pm 19:54 Mostly Cloudy 16 -9 10 -12 79 79 WNW 18 30 30.00 1016 10 16 N/A
8:15 pm 20:15 Cloudy 16 -9 10 -12 79 79 WNW 12 19 30.03 1017 10 16 N/A
8:34 pm 20:34 Cloudy 16 -9 10 -12 79 79 WNW 12 19 30.03 1017 10 16 N/A
8:54 pm 20:54 Cloudy 16 -9 12 -11 86 86 WNW 13 20 30.03 1017 3 5 N/A
9:14 pm 21:14 Cloudy 16 -9 12 -11 86 86 WNW 8 13 30.03 1017 4 6 N/A
9:34 pm 21:34 Cloudy 16 -9 10 -12 79 79 WNW 12 19 30.03 1017 3 4 N/A
9:55 pm 21:55 Cloudy 16 -9 10 -12 79 79 WNW 13 20 30.03 1017 10 16 N/A
10:14 pm 22:14 Cloudy 16 -9 9 -13 73 73 WNW 10 17 30.03 1017 10 16 N/A
10:34 pm 22:34 Partly Cloudy 14 -10 9 -13 79 79 W 10 17 30.03 1017 10 16 N/A
10:55 pm 22:55 Mostly Cloudy 14 -10 9 -13 79 79 W 12 19 30.03 1017 10 16 N/A
11:14 pm 23:14 Mostly Cloudy 14 -10 9 -13 79 79 W 10 17 30.03 1017 10 16 N/A
11:34 pm 23:34 Clear 12 -11 9 -13 85 85 W 10 17 30.03 1017 10 16 N/A
11:55 pm 23:55 Clear 12 -11 9 -13 85 85 W 8 13 30.03 1017 10 16 N/A

Powered by AerisWeather